Hayward, WI

4:27 PM CST on November 11, 2019 (GMT -0600)
Sawyer County

Weather History for KHYR - September, 2019

Change the Weather History Date:

Thursday, September 12, 2019

  Actual Average Record
Temperature  
Mean Temperature 55 °F -  
Max Temperature 62 °F 78 °F 84 °F (2011)
Min Temperature 51 °F 48 °F 32 °F (2007)
Degree Days  
Heating Degree Days 10    
Growing Degree Days 5 (Base 50)    
Moisture  
Dew Point 52 °F    
Average Humidity 89    
Maximum Humidity 94    
Minimum Humidity 86    
Precipitation  
Precipitation 0.67 in - - ()
Sea Level Pressure  
Sea Level Pressure 30.05 in    
Wind  
Wind Speed 10 mph (East)    
Max Wind Speed 18 mph    
Max Gust Speed 37 mph    
Visibility 7 miles    
Events Rain , Thunderstorm    
Averages and records for this station are not official NWS values.
T = Trace of Precipitation, MM = Missing Value Source: NWS Daily Summary

Daily Weather History Graph

Daily Weather History Graph

Search for Another Location

Airport or City:

Astronomy

Sep. 12, 2019 Rise Set
Actual Time 6:39 AM CDT 7:23 PM CDT
Civil Twilight 6:09 AM CDT 7:53 PM CDT
Nautical Twilight 5:33 AM CDT 8:29 PM CDT
Astronomical Twilight 4:56 AM CDT 9:06 PM CDT
Moon 7:14 PM CDT (9/12) 4:50 AM CDT (9/12)
Length of Visible Light 13h 43m
Length of Day
12h 43m
Waxing Gibbous, 98% of the Moon is Illuminated
Sep 12
Waxing Gibbous
Sep 13
Full
Sep 21
Last Quarter
Sep 28
New
Oct 5
First Quarter

Hourly Weather History & Observations

Time (CDT) Temp. Dew Point Humidity Pressure Visibility Wind Dir Wind Speed Gust Speed Precip Events Conditions
12:10 AM 52.0 °F 48.0 °F 86% 30.19 in 9.0 mi NE 12.7 mph 20.7 mph N/A   Overcast
12:53 AM 51.1 °F 48.0 °F 89% 30.20 in 10.0 mi ENE 10.4 mph - N/A   Overcast
1:53 AM 51.1 °F 48.0 °F 89% 30.20 in 10.0 mi ENE 9.2 mph 19.6 mph N/A   Overcast
2:53 AM 51.1 °F 48.0 °F 89% 30.21 in 10.0 mi ENE 8.1 mph - N/A   Overcast
3:24 AM 51.1 °F 46.9 °F 86% 30.19 in 10.0 mi ENE 8.1 mph - N/A   Overcast
3:53 AM 51.1 °F 46.9 °F 86% 30.22 in 10.0 mi ENE 9.2 mph - N/A   Overcast
4:53 AM 51.1 °F 46.9 °F 86% 30.19 in 10.0 mi ENE 8.1 mph - N/A   Overcast
5:51 AM 51.8 °F 48.2 °F 88% 30.18 in 10.0 mi ENE 9.2 mph - N/A   Overcast
5:53 AM 51.1 °F 48.0 °F 89% 30.20 in 10.0 mi East 10.4 mph - N/A   Overcast
6:53 AM 52.0 °F 48.9 °F 89% 30.21 in 6.0 mi ENE 9.2 mph - N/A   Overcast
7:08 AM 52.0 °F 48.9 °F 89% 30.18 in 1.8 mi ENE 9.2 mph - N/A   Overcast
7:25 AM 52.0 °F 48.9 °F 89% 30.17 in 3.0 mi ENE 9.2 mph - N/A   Overcast
7:53 AM 52.0 °F 48.9 °F 89% 30.18 in 10.0 mi ENE 9.2 mph - N/A   Overcast
8:29 AM 53.1 °F 50.0 °F 89% 30.15 in 2.0 mi ENE 10.4 mph 18.4 mph 0.00 in Rain Light Rain
8:50 AM 53.6 °F 50.0 °F 88% 30.14 in 9.0 mi ENE 12.7 mph 21.9 mph 0.01 in   Overcast
8:53 AM 53.1 °F 50.0 °F 89% 30.15 in 10.0 mi ENE 10.4 mph 21.9 mph 0.01 in Rain Light Rain
9:15 AM 53.1 °F 50.0 °F 89% 30.14 in 2.0 mi ENE 9.2 mph 17.3 mph 0.00 in Rain Light Rain
9:32 AM 53.1 °F 50.0 °F 89% 30.14 in 3.0 mi ENE 9.2 mph - 0.01 in Rain Light Rain
9:53 AM 54.0 °F 51.1 °F 90% 30.14 in 9.0 mi East 6.9 mph 18.4 mph 0.02 in Rain Light Rain
10:45 AM 54.0 °F 51.1 °F 90% 30.13 in 1.5 mi East 9.2 mph - 0.04 in Rain Rain
10:50 AM 53.6 °F 51.8 °F 94% 30.13 in 0.8 mi Variable 5.8 mph - 0.07 in Rain Heavy Rain
10:53 AM 54.0 °F 51.1 °F 90% 30.14 in 0.8 mi ESE 5.8 mph - 0.09 in Rain Heavy Rain
11:01 AM 54.0 °F 51.1 °F 90% 30.12 in 1.0 mi East 8.1 mph - 0.04 in Rain Heavy Rain
11:16 AM 54.0 °F 51.1 °F 90% 30.11 in 1.2 mi East 11.5 mph 19.6 mph 0.13 in Rain Heavy Rain
11:24 AM 54.0 °F 52.0 °F 93% 30.11 in 2.0 mi East 10.4 mph 19.6 mph 0.15 in Rain Rain
11:53 AM 55.0 °F 52.0 °F 89% 30.14 in 1.5 mi ESE 10.4 mph 21.9 mph 0.24 in Rain Heavy Rain
12:05 PM 55.0 °F 52.0 °F 89% 30.09 in 1.0 mi East 12.7 mph 24.2 mph 0.05 in Rain Heavy Rain
12:38 PM 55.0 °F 52.0 °F 89% 30.06 in 1.5 mi East 17.3 mph 28.8 mph 0.20 in Rain Rain
12:53 PM 55.9 °F 53.1 °F 90% 30.06 in 3.0 mi East 16.1 mph 31.1 mph 0.23 in Rain Light Rain
1:17 PM 57.0 °F 54.0 °F 89% 30.06 in 10.0 mi ESE 12.7 mph 23.0 mph 0.00 in Rain Light Rain
1:53 PM 57.9 °F 54.0 °F 87% 30.05 in 5.0 mi East 12.7 mph 27.6 mph 0.01 in Rain Light Rain
2:01 PM 57.9 °F 54.0 °F 87% 30.03 in 10.0 mi ESE 15.0 mph 25.3 mph 0.00 in   Overcast
2:19 PM 57.9 °F 54.0 °F 87% 30.03 in 10.0 mi ESE 18.4 mph 29.9 mph 0.00 in   Overcast
2:53 PM 57.9 °F 54.0 °F 87% 30.02 in 10.0 mi East 15.0 mph 31.1 mph 0.00 in   Overcast
3:26 PM 57.0 °F 54.0 °F 89% 29.97 in 10.0 mi East 13.8 mph 36.8 mph 0.00 in   Overcast
3:31 PM 57.9 °F 54.0 °F 87% 29.96 in 10.0 mi East 18.4 mph 36.8 mph 0.00 in Thunderstorm Overcast
3:50 PM 57.2 °F 53.6 °F 88% 29.96 in 10.0 mi ESE 16.1 mph 27.6 mph 0.00 in Thunderstorm Thunderstorm
3:53 PM 57.9 °F 54.0 °F 87% 29.97 in 10.0 mi ESE 17.3 mph 28.8 mph 0.00 in Thunderstorm Thunderstorm
4:27 PM 57.9 °F 54.0 °F 87% 29.99 in 5.0 mi Variable 4.6 mph - 0.01 in Rain Light Rain
4:53 PM 57.0 °F 54.0 °F 89% 29.99 in 10.0 mi SE 4.6 mph - 0.01 in   Overcast
5:10 PM 57.0 °F 54.0 °F 89% 29.94 in 1.8 mi ESE 8.1 mph 19.6 mph N/A   Overcast
5:33 PM 57.0 °F 55.0 °F 93% 29.96 in 3.0 mi East 6.9 mph - N/A   Overcast
5:53 PM 57.9 °F 54.0 °F 87% 29.96 in 5.0 mi ESE 12.7 mph 21.9 mph N/A   Overcast
6:27 PM 57.9 °F 55.0 °F 90% 29.95 in 1.8 mi Variable 4.6 mph 17.3 mph N/A   Overcast
6:40 PM 57.0 °F 55.0 °F 93% 29.95 in 0.8 mi ESE 9.2 mph 18.4 mph 0.03 in Rain Rain
6:48 PM 57.2 °F 55.4 °F 94% 29.95 in 1.2 mi ESE 12.7 mph 20.7 mph 0.05 in Rain Light Rain
6:53 PM 57.0 °F 55.0 °F 93% 29.96 in 2.0 mi Variable 6.9 mph 20.7 mph 0.05 in Rain Light Rain
7:15 PM 57.0 °F 55.0 °F 93% 29.93 in 4.0 mi Variable 6.9 mph 17.3 mph 0.01 in   Overcast
7:53 PM 57.9 °F 55.0 °F 90% 29.99 in 10.0 mi North - - 0.01 in Thunderstorm Thunderstorm
8:03 PM 57.9 °F 55.0 °F 90% 29.95 in 10.0 mi ESE 10.4 mph 19.6 mph 0.00 in Rain , Thunderstorm Light Thunderstorms and Rain
8:10 PM 57.9 °F 54.0 °F 87% 29.95 in 10.0 mi ESE 10.4 mph 19.6 mph 0.00 in Rain , Thunderstorm Light Thunderstorms and Rain
8:17 PM 57.9 °F 55.0 °F 90% 29.94 in 10.0 mi ESE 9.2 mph - 0.00 in Rain Light Rain
8:53 PM 57.0 °F 55.0 °F 93% 29.94 in 10.0 mi ESE 9.2 mph - 0.00 in Rain Light Rain
9:06 PM 57.0 °F 55.0 °F 93% 29.93 in 10.0 mi SE 8.1 mph - 0.00 in Rain Light Rain
9:27 PM 57.9 °F 55.0 °F 90% 29.89 in 10.0 mi SE 8.1 mph 19.6 mph 0.00 in Rain Light Rain
9:53 PM 57.9 °F 55.0 °F 90% 29.89 in 10.0 mi SE 11.5 mph 20.7 mph 0.00 in   Overcast
10:21 PM 59.0 °F 55.9 °F 90% 29.87 in 10.0 mi SSE 10.4 mph 19.6 mph N/A   Overcast
10:53 PM 59.0 °F 55.9 °F 90% 29.87 in 10.0 mi South 8.1 mph - N/A   Overcast
11:53 PM 61.0 °F 57.9 °F 90% 29.86 in 10.0 mi South 9.2 mph 19.6 mph N/A   Overcast